BAW87C EDDF-EDDP

Flight info

Callsign BAW87C
Flight time 0h 49m
Altitude 23000
Route SULUS7S/18 SULUS Z12 LASGA/N0394F220 T953 VOCIM/N0389F210 T954 GOXLI GOXLI1R
Aircraft A319/M-SDE3FGIJ1KRWXY/LB1

Departure

Time 2026-05-07 13:42
Airport Frankfurt Main Airport (EDDF)

Arrival

Time 2026-05-07 14:31
Airport Leipzig/Halle Airport (EDDP)
Time Latitude Longitude Altitude Speed Heading
2026-05-07 13:00 50.04902 8.59108 350 ft 0 kts 338°
2026-05-07 13:23 50.04896 8.59112 349 ft 4 kts 338°
2026-05-07 13:24 50.04871 8.59128 357 ft 4 kts 338°
2026-05-07 13:24 50.04846 8.59144 356 ft 4 kts 338°
2026-05-07 13:24 50.04821 8.59159 357 ft 3 kts 338°
2026-05-07 13:24 50.04819 8.59161 356 ft 0 kts 338°
2026-05-07 13:31 50.04812 8.59125 353 ft 8 kts 238°
2026-05-07 13:31 50.04786 8.59020 355 ft 13 kts 251°
2026-05-07 13:31 50.04752 8.58871 356 ft 17 kts 249°
2026-05-07 13:32 50.04739 8.58764 350 ft 8 kts 304°
2026-05-07 13:32 50.04790 8.58738 358 ft 10 kts 336°
2026-05-07 13:32 50.04865 8.58693 353 ft 13 kts 339°
2026-05-07 13:32 50.04925 8.58582 350 ft 16 kts 260°
2026-05-07 13:33 50.04882 8.58399 355 ft 20 kts 248°
2026-05-07 13:33 50.04833 8.58195 350 ft 20 kts 249°
2026-05-07 13:33 50.04782 8.57995 352 ft 20 kts 243°
2026-05-07 13:33 50.04693 8.57839 350 ft 18 kts 253°
2026-05-07 13:34 50.04652 8.57673 354 ft 16 kts 252°
2026-05-07 13:34 50.04575 8.57346 353 ft 16 kts 249°
2026-05-07 13:34 50.04536 8.57186 353 ft 16 kts 251°
2026-05-07 13:35 50.04500 8.57028 351 ft 15 kts 250°
2026-05-07 13:35 50.04462 8.56872 352 ft 15 kts 249°
2026-05-07 13:35 50.04425 8.56719 352 ft 15 kts 250°
2026-05-07 13:35 50.04389 8.56568 352 ft 15 kts 249°
2026-05-07 13:36 50.04353 8.56418 352 ft 15 kts 249°
2026-05-07 13:36 50.04315 8.56268 352 ft 15 kts 248°
2026-05-07 13:36 50.04279 8.56116 352 ft 15 kts 249°
2026-05-07 13:36 50.04237 8.55940 356 ft 20 kts 250°
2026-05-07 13:37 50.04182 8.55701 354 ft 27 kts 250°
2026-05-07 13:37 50.04122 8.55444 355 ft 17 kts 250°
2026-05-07 13:37 50.04075 8.55251 354 ft 21 kts 248°
2026-05-07 13:37 50.04020 8.55022 355 ft 24 kts 250°
2026-05-07 13:38 50.03966 8.54790 358 ft 23 kts 250°
2026-05-07 13:38 50.03916 8.54587 353 ft 21 kts 249°
2026-05-07 13:38 50.03863 8.54379 355 ft 18 kts 238°
2026-05-07 13:38 50.03794 8.54198 350 ft 21 kts 250°
2026-05-07 13:39 50.03742 8.53977 351 ft 23 kts 249°
2026-05-07 13:39 50.03680 8.53720 350 ft 27 kts 249°
2026-05-07 13:39 50.03618 8.53467 354 ft 24 kts 249°
2026-05-07 13:39 50.03556 8.53217 352 ft 27 kts 249°
2026-05-07 13:40 50.03487 8.52936 355 ft 25 kts 249°
2026-05-07 13:40 50.03442 8.52753 357 ft 16 kts 249°
2026-05-07 13:40 50.03393 8.52604 357 ft 16 kts 209°
2026-05-07 13:40 50.03330 8.52595 352 ft 8 kts 176°
2026-05-07 13:41 50.03239 8.52596 352 ft 23 kts 180°
2026-05-07 13:41 50.02843 8.52596 351 ft 89 kts 180°
2026-05-07 13:41 50.02036 8.52605 351 ft 142 kts 179°
2026-05-07 13:41 50.00968 8.52611 760 ft 151 kts 182°
2026-05-07 13:42 49.99909 8.52611 1342 ft 153 kts 181°
2026-05-07 13:42 49.98816 8.52616 1748 ft 166 kts 181°
2026-05-07 13:42 49.97584 8.52707 2001 ft 190 kts 168°
2026-05-07 13:42 49.96363 8.53729 2275 ft 214 kts 135°
2026-05-07 13:43 49.95503 8.55760 2690 ft 235 kts 118°
2026-05-07 13:43 49.94711 8.57986 3625 ft 236 kts 118°
2026-05-07 13:43 49.94096 8.60360 4501 ft 241 kts 100°
2026-05-07 13:43 49.93938 8.63073 5003 ft 265 kts 92°
2026-05-07 13:44 49.93820 8.65932 5801 ft 274 kts 96°
2026-05-07 13:44 49.93261 8.68800 6709 ft 281 kts 116°
2026-05-07 13:44 49.92110 8.71261 7588 ft 285 kts 135°
2026-05-07 13:44 49.90809 8.73601 8466 ft 290 kts 119°
2026-05-07 13:45 49.90328 8.76606 9286 ft 294 kts 86°
2026-05-07 13:45 49.90768 8.79716 10152 ft 296 kts 73°
2026-05-07 13:45 49.91261 8.82914 10544 ft 317 kts 77°
2026-05-07 13:45 49.91668 8.86414 10836 ft 339 kts 80°
2026-05-07 13:46 49.92016 8.90077 11019 ft 345 kts 81°
2026-05-07 13:46 49.92330 8.93772 11048 ft 346 kts 82°
2026-05-07 13:46 49.92635 8.97465 11052 ft 346 kts 82°
2026-05-07 13:46 49.92949 9.01163 11095 ft 348 kts 81°
2026-05-07 13:47 49.93279 9.04897 11797 ft 350 kts 81°
2026-05-07 13:47 49.93620 9.08655 12540 ft 353 kts 81°
2026-05-07 13:47 49.93972 9.12463 13263 ft 357 kts 81°
2026-05-07 13:47 49.94327 9.16297 13968 ft 360 kts 81°
2026-05-07 13:48 49.94683 9.20163 14600 ft 364 kts 81°
2026-05-07 13:48 49.95040 9.24072 15234 ft 368 kts 81°
2026-05-07 13:48 49.95397 9.28031 15877 ft 371 kts 81°
2026-05-07 13:48 49.95751 9.32009 16508 ft 375 kts 81°
2026-05-07 13:49 49.96109 9.36048 17161 ft 378 kts 81°
2026-05-07 13:49 49.96470 9.40108 17811 ft 382 kts 81°
2026-05-07 13:49 49.96835 9.44213 18431 ft 385 kts 81°
2026-05-07 13:49 49.97203 9.48357 18996 ft 389 kts 81°
2026-05-07 13:50 49.97574 9.52527 19566 ft 392 kts 81°
2026-05-07 13:50 49.97941 9.56690 20134 ft 395 kts 81°
2026-05-07 13:50 49.98313 9.60933 20711 ft 398 kts 81°
2026-05-07 13:50 49.98686 9.65217 21271 ft 401 kts 82°
2026-05-07 13:51 49.99057 9.69531 21824 ft 404 kts 82°
2026-05-07 13:51 49.99430 9.73870 22371 ft 407 kts 82°
2026-05-07 13:51 49.99808 9.78246 22867 ft 410 kts 82°
2026-05-07 13:51 50.00183 9.82642 23006 ft 409 kts 82°
2026-05-07 13:52 50.00553 9.87003 23031 ft 405 kts 82°
2026-05-07 13:52 50.00921 9.91333 23034 ft 404 kts 82°
2026-05-07 13:52 50.01165 9.94202 23033 ft 403 kts 82°
2026-05-07 13:52 50.01528 9.98507 23034 ft 403 kts 82°
2026-05-07 13:53 50.01893 10.02848 23033 ft 403 kts 82°
2026-05-07 13:53 50.02250 10.07156 23030 ft 403 kts 82°
2026-05-07 13:53 50.02606 10.11491 23032 ft 403 kts 82°
2026-05-07 13:53 50.02962 10.15821 23030 ft 403 kts 82°
2026-05-07 13:54 50.03319 10.20148 23031 ft 403 kts 82°
2026-05-07 13:54 50.03674 10.24469 23028 ft 403 kts 82°
2026-05-07 13:54 50.04032 10.28798 23031 ft 403 kts 82°
2026-05-07 13:54 50.04385 10.33116 23031 ft 403 kts 82°
2026-05-07 13:55 50.04734 10.37449 23032 ft 403 kts 82°
2026-05-07 13:55 50.05079 10.41774 23029 ft 403 kts 82°
2026-05-07 13:55 50.05423 10.46103 23030 ft 403 kts 82°
2026-05-07 13:55 50.05763 10.50425 23024 ft 402 kts 82°
2026-05-07 13:56 50.06103 10.54744 23023 ft 402 kts 82°
2026-05-07 13:56 50.06444 10.59071 23026 ft 402 kts 82°
2026-05-07 13:56 50.06782 10.63390 23020 ft 402 kts 82°
2026-05-07 13:56 50.07190 10.67677 23020 ft 401 kts 75°
2026-05-07 13:57 50.08038 10.71813 23023 ft 399 kts 65°
2026-05-07 13:57 50.09332 10.75616 23023 ft 397 kts 54°
2026-05-07 13:57 50.11025 10.78976 23023 ft 394 kts 45°
2026-05-07 13:57 50.12850 10.82101 23018 ft 394 kts 46°
2026-05-07 13:58 50.14678 10.85270 23019 ft 394 kts 46°
2026-05-07 13:58 50.16503 10.88462 23018 ft 394 kts 46°
2026-05-07 13:58 50.18319 10.91652 23015 ft 393 kts 46°
2026-05-07 13:58 50.20139 10.94848 23012 ft 393 kts 46°
2026-05-07 13:59 50.21960 10.98032 23022 ft 393 kts 46°
2026-05-07 13:59 50.23779 11.01212 23010 ft 392 kts 47°
2026-05-07 13:59 50.25600 11.04391 23017 ft 392 kts 46°
2026-05-07 13:59 50.27677 11.07110 23009 ft 389 kts 30°
2026-05-07 14:00 50.30151 11.08746 23004 ft 384 kts 14°
2026-05-07 14:00 50.32729 11.09714 22626 ft 379 kts 12°
2026-05-07 14:00 50.35292 11.10637 22153 ft 377 kts 12°
2026-05-07 14:00 50.37839 11.11540 21989 ft 376 kts 12°
2026-05-07 14:01 50.40395 11.12447 22004 ft 377 kts 12°
2026-05-07 14:01 50.42957 11.13360 22007 ft 377 kts 12°
2026-05-07 14:01 50.45519 11.14280 22007 ft 377 kts 12°
2026-05-07 14:01 50.48074 11.15202 22016 ft 377 kts 12°
2026-05-07 14:02 50.50626 11.16126 22012 ft 377 kts 12°
2026-05-07 14:02 50.53152 11.17041 22013 ft 377 kts 12°
2026-05-07 14:02 50.55705 11.17964 22010 ft 377 kts 12°
2026-05-07 14:02 50.58262 11.18890 22013 ft 377 kts 12°
2026-05-07 14:03 50.60818 11.19819 22014 ft 377 kts 12°
2026-05-07 14:03 50.63356 11.20863 22012 ft 377 kts 18°
2026-05-07 14:03 50.65770 11.22462 22017 ft 378 kts 24°
2026-05-07 14:03 50.68158 11.24212 22021 ft 378 kts 24°
2026-05-07 14:04 50.70541 11.25952 22022 ft 378 kts 24°
2026-05-07 14:04 50.72926 11.27688 22024 ft 377 kts 24°
2026-05-07 14:04 50.75309 11.29420 22027 ft 377 kts 24°
2026-05-07 14:04 50.77691 11.31156 22031 ft 377 kts 24°
2026-05-07 14:05 50.80080 11.32898 22032 ft 377 kts 24°
2026-05-07 14:05 50.82459 11.34637 22036 ft 377 kts 24°
2026-05-07 14:05 50.84846 11.36384 22036 ft 377 kts 24°
2026-05-07 14:05 50.87231 11.38131 22036 ft 378 kts 24°
2026-05-07 14:06 50.89614 11.39881 22036 ft 378 kts 24°
2026-05-07 14:06 50.91998 11.41632 22037 ft 378 kts 24°
2026-05-07 14:06 50.94383 11.43391 22037 ft 378 kts 24°
2026-05-07 14:06 50.96767 11.45152 22037 ft 378 kts 24°
2026-05-07 14:07 50.99148 11.46915 22040 ft 378 kts 24°
2026-05-07 14:07 51.01500 11.48658 22034 ft 378 kts 24°
2026-05-07 14:07 51.03884 11.50418 22035 ft 378 kts 24°
2026-05-07 14:07 51.06218 11.52333 22026 ft 378 kts 32°
2026-05-07 14:08 51.08258 11.54969 22032 ft 380 kts 45°
2026-05-07 14:08 51.09895 11.58266 22034 ft 381 kts 57°
2026-05-07 14:08 51.11068 11.62055 22037 ft 382 kts 69°
2026-05-07 14:08 51.11716 11.66154 22035 ft 384 kts 81°
2026-05-07 14:09 51.11956 11.70401 22035 ft 385 kts 84°
2026-05-07 14:09 51.12171 11.74639 22035 ft 385 kts 84°
2026-05-07 14:09 51.12388 11.78885 22035 ft 385 kts 84°
2026-05-07 14:09 51.12606 11.83140 22002 ft 386 kts 84°
2026-05-07 14:10 51.12820 11.87383 21720 ft 384 kts 84°
2026-05-07 14:10 51.13033 11.91611 21456 ft 383 kts 84°
2026-05-07 14:10 51.13246 11.95841 21194 ft 382 kts 84°
2026-05-07 14:10 51.13453 11.99999 20945 ft 381 kts 84°
2026-05-07 14:11 51.13657 12.04186 20688 ft 381 kts 84°
2026-05-07 14:11 51.13862 12.08398 20437 ft 380 kts 85°
2026-05-07 14:11 51.14064 12.12578 20173 ft 379 kts 85°
2026-05-07 14:11 51.14266 12.16766 19934 ft 379 kts 85°
2026-05-07 14:12 51.14464 12.20948 19678 ft 378 kts 85°
2026-05-07 14:12 51.14659 12.25128 19435 ft 378 kts 85°
2026-05-07 14:12 51.14853 12.29301 19189 ft 376 kts 86°
2026-05-07 14:12 51.15044 12.33455 18947 ft 375 kts 86°
2026-05-07 14:13 51.15231 12.37570 18686 ft 372 kts 86°
2026-05-07 14:13 51.15417 12.41685 18206 ft 369 kts 86°
2026-05-07 14:13 51.15601 12.45755 17677 ft 366 kts 86°
2026-05-07 14:13 51.16128 12.49683 17192 ft 363 kts 65°
2026-05-07 14:14 51.17630 12.52832 16782 ft 357 kts 38°
2026-05-07 14:14 51.19799 12.54627 16423 ft 348 kts 14°
2026-05-07 14:14 51.22167 12.54923 16046 ft 340 kts 351°
2026-05-07 14:14 51.24331 12.53773 15690 ft 331 kts 327°
2026-05-07 14:15 51.26019 12.51368 15335 ft 323 kts 304°
2026-05-07 14:15 51.26956 12.48176 14954 ft 317 kts 281°
2026-05-07 14:15 51.27052 12.44705 14564 ft 312 kts 259°
2026-05-07 14:15 51.26362 12.41443 14177 ft 310 kts 244°
2026-05-07 14:16 51.25546 12.38260 13782 ft 310 kts 252°
2026-05-07 14:16 51.25117 12.34896 13337 ft 309 kts 264°
2026-05-07 14:16 51.24971 12.31483 12900 ft 309 kts 265°
2026-05-07 14:16 51.24839 12.28095 12479 ft 309 kts 269°
2026-05-07 14:17 51.25020 12.24677 12050 ft 309 kts 280°
2026-05-07 14:17 51.25538 12.21354 11629 ft 307 kts 284°
2026-05-07 14:17 51.26076 12.18056 11201 ft 306 kts 284°
2026-05-07 14:17 51.26604 12.14760 10786 ft 304 kts 284°
2026-05-07 14:18 51.27117 12.11534 10443 ft 300 kts 284°
2026-05-07 14:18 51.27620 12.08369 10289 ft 289 kts 284°
2026-05-07 14:18 51.28110 12.05273 10061 ft 285 kts 284°
2026-05-07 14:18 51.28480 12.02183 9899 ft 283 kts 275°
2026-05-07 14:19 51.28437 11.99040 9764 ft 284 kts 265°
2026-05-07 14:19 51.28276 11.95893 9491 ft 284 kts 266°
2026-05-07 14:19 51.28121 11.92753 9125 ft 283 kts 266°
2026-05-07 14:19 51.27968 11.89631 8770 ft 281 kts 266°
2026-05-07 14:20 51.27815 11.86542 8429 ft 278 kts 266°
2026-05-07 14:20 51.27662 11.83467 8080 ft 277 kts 266°
2026-05-07 14:20 51.27510 11.80418 7734 ft 275 kts 266°
2026-05-07 14:20 51.27359 11.77382 7416 ft 273 kts 267°
2026-05-07 14:21 51.27207 11.74405 7089 ft 272 kts 266°
2026-05-07 14:21 51.27052 11.71412 6771 ft 270 kts 266°
2026-05-07 14:21 51.26903 11.68427 6474 ft 268 kts 267°
2026-05-07 14:21 51.26785 11.65459 6153 ft 266 kts 268°
2026-05-07 14:22 51.26808 11.62523 5812 ft 263 kts 282°
2026-05-07 14:22 51.27488 11.59865 5472 ft 260 kts 306°
2026-05-07 14:22 51.28784 11.57891 5125 ft 258 kts 329°
2026-05-07 14:22 51.30462 11.56947 4775 ft 257 kts 353°
2026-05-07 14:23 51.32229 11.57184 4413 ft 257 kts 17°
2026-05-07 14:23 51.33786 11.58561 4075 ft 257 kts 40°
2026-05-07 14:23 51.34954 11.60713 3759 ft 256 kts 51°
2026-05-07 14:23 51.36055 11.62933 3449 ft 254 kts 51°
2026-05-07 14:24 51.37149 11.65137 3126 ft 252 kts 51°
2026-05-07 14:24 51.38111 11.67460 2993 ft 251 kts 63°
2026-05-07 14:24 51.38640 11.70083 3004 ft 253 kts 78°
2026-05-07 14:24 51.38831 11.72844 2997 ft 243 kts 84°
2026-05-07 14:25 51.38945 11.75457 3003 ft 227 kts 84°
2026-05-07 14:25 51.39062 11.77875 3003 ft 211 kts 83°
2026-05-07 14:25 51.39177 11.80150 2996 ft 196 kts 83°
2026-05-07 14:25 51.39284 11.82259 3003 ft 186 kts 83°
2026-05-07 14:26 51.39389 11.84312 3006 ft 184 kts 83°
2026-05-07 14:26 51.39493 11.86364 3006 ft 185 kts 83°
2026-05-07 14:26 51.39596 11.88410 3004 ft 185 kts 83°
2026-05-07 14:26 51.39699 11.90463 3007 ft 184 kts 83°
2026-05-07 14:27 51.39800 11.92502 3006 ft 183 kts 83°
2026-05-07 14:27 51.39900 11.94516 3011 ft 183 kts 83°
2026-05-07 14:27 51.40001 11.96545 3011 ft 184 kts 83°
2026-05-07 14:27 51.40102 11.98594 3002 ft 183 kts 83°
2026-05-07 14:28 51.40202 12.00626 3012 ft 182 kts 83°
2026-05-07 14:28 51.40297 12.02576 2939 ft 174 kts 83°
2026-05-07 14:28 51.40396 12.04579 2564 ft 185 kts 83°
2026-05-07 14:28 51.40498 12.06669 2261 ft 187 kts 84°
2026-05-07 14:29 51.40596 12.08702 1972 ft 181 kts 83°
2026-05-07 14:29 51.40691 12.10674 1732 ft 174 kts 83°
2026-05-07 14:29 51.40781 12.12557 1496 ft 164 kts 83°
2026-05-07 14:29 51.40863 12.14282 1261 ft 145 kts 83°
2026-05-07 14:30 51.40937 12.15825 1061 ft 135 kts 83°
2026-05-07 14:30 51.41008 12.17298 877 ft 132 kts 83°
2026-05-07 14:30 51.41077 12.18741 699 ft 129 kts 83°
2026-05-07 14:30 51.41148 12.20152 532 ft 128 kts 82°
2026-05-07 14:31 51.41210 12.21539 454 ft 115 kts 84°
2026-05-07 14:31 51.41260 12.22494 458 ft 69 kts 85°
2026-05-07 14:31 51.41283 12.23060 463 ft 30 kts 86°
2026-05-07 14:31 51.41322 12.23256 465 ft 13 kts 22°
2026-05-07 14:32 51.41390 12.23248 462 ft 12 kts 354°
2026-05-07 14:32 51.41493 12.23235 461 ft 17 kts 359°
2026-05-07 14:32 51.41599 12.23208 464 ft 14 kts 327°
2026-05-07 14:32 51.41626 12.23090 463 ft 11 kts 285°
2026-05-07 14:33 51.41646 12.22961 464 ft 12 kts 285°
2026-05-07 14:33 51.41667 12.22840 463 ft 10 kts 286°
2026-05-07 14:33 51.41685 12.22742 464 ft 9 kts 286°
2026-05-07 14:33 51.41703 12.22640 461 ft 10 kts 285°
2026-05-07 14:34 51.41725 12.22516 457 ft 12 kts 286°
2026-05-07 14:34 51.41750 12.22374 455 ft 14 kts 286°
2026-05-07 14:34 51.41779 12.22213 449 ft 16 kts 285°
2026-05-07 14:34 51.41804 12.22035 446 ft 17 kts 285°
2026-05-07 14:35 51.41837 12.21849 443 ft 18 kts 283°
2026-05-07 14:35 51.41858 12.21713 441 ft 7 kts 284°
2026-05-07 14:35 51.41872 12.21647 434 ft 4 kts 316°
2026-05-07 14:35 51.41901 12.21652 439 ft 5 kts 15°
2026-05-07 14:36 51.41942 12.21670 429 ft 6 kts 15°
2026-05-07 14:36 51.41950 12.21674 432 ft 0 kts 15°